Deer Park, WA

2:46 PM PDT on August 24, 2016 (GMT -0700)
Deer Park

Weather History for KDEW - January, 2012

Change the Weather History Date:

Thursday, January 5, 2012

  Actual Average Record
Temperature  
Mean Temperature 38 °F 26 °F  
Max Temperature 47 °F 32 °F 47 °F (2012)
Min Temperature 29 °F 20 °F -27 °F (2004)
Degree Days  
Heating Degree Days 27 39  
Month to date heating degree days 150 198  
Since 1 July heating degree days 3212 3425  
Cooling Degree Days 0 0  
Month to date cooling degree days 0 0  
Year to date cooling degree days 0 0  
Moisture  
Dew Point 28 °F    
Average Humidity 62    
Maximum Humidity 82    
Minimum Humidity 41    
Precipitation  
Precipitation 0.00 in 0.10 in 0.33 in (2007)
Month to date precipitation T 0.53  
Year to date precipitation T 0.53  
Sea Level Pressure  
Sea Level Pressure 30.18 in    
Wind  
Wind Speed 12 mph (SSW)    
Max Wind Speed 28 mph    
Max Gust Speed 35 mph    
Visibility 10 miles    
Events      
T = Trace of Precipitation, MM = Missing Value Source: NWS Daily Summary

Daily Weather History Graph

Daily Weather History Graph

Search for Another Location

Airport or City:

Trip Planner

Search our weather history database for the weather conditions in past years. The results will help you decide how hot, cold, wet, or windy it might be!

Date:

Astronomy

Jan. 05, 2012 Rise Set
Actual Time 7:39 AM PST 4:11 PM PST
Civil Twilight 7:03 AM PST 4:47 PM PST
Nautical Twilight 6:23 AM PST 5:26 PM PST
Astronomical Twilight 5:46 AM PST 6:03 PM PST
Moon 1:17 PM PST (1/5) 4:28 AM PST (1/5)
Length of Visible Light 9h 43m
Length of Day
8h 32m
Waxing Gibbous, 88% of the Moon is Illuminated
Jan 5
Waxing Gibbous
Jan 8
Full
Jan 16
Last Quarter
Jan 22
New
Jan 30
First Quarter

Hourly Weather History & Observations

Time (PST) Temp. Windchill Dew Point Humidity Pressure Visibility Wind Dir Wind Speed Gust Speed Precip Events Conditions
12:53 AM 46.9 °F - 37.0 °F 68% 30.06 in 10.0 mi SW 13.8 mph - N/A   Mostly Cloudy
1:38 AM 44.6 °F 38.1 °F 35.6 °F 71% 30.06 in 10.0 mi SSW 13.8 mph - N/A   Partly Cloudy
1:53 AM 44.1 °F 37.4 °F 37.0 °F 76% 30.09 in 10.0 mi SW 13.8 mph 20.7 mph N/A   Mostly Cloudy
2:53 AM 42.1 °F 36.6 °F 37.0 °F 82% 30.10 in 10.0 mi SSW 9.2 mph - N/A   Mostly Cloudy
3:53 AM 41.0 °F 33.1 °F 35.1 °F 79% 30.09 in 10.0 mi South 15.0 mph - N/A   Clear
4:53 AM 39.9 °F 34.5 °F 32.0 °F 73% 30.11 in 10.0 mi South 8.1 mph - N/A   Clear
5:53 AM 39.0 °F 32.8 °F 32.0 °F 76% 30.13 in 10.0 mi SSW 9.2 mph - N/A   Clear
7:53 AM 39.9 °F 32.5 °F 28.0 °F 63% 30.14 in 10.0 mi SW 12.7 mph 21.9 mph N/A   Clear
9:53 AM 43.0 °F 35.1 °F 28.9 °F 58% 30.19 in 10.0 mi SSW 17.3 mph 24.2 mph N/A   Clear
10:53 AM 44.1 °F 35.4 °F 30.0 °F 58% 30.17 in 10.0 mi SSW 21.9 mph 28.8 mph N/A   Clear
11:53 AM 46.0 °F 39.6 °F 28.9 °F 51% 30.17 in 10.0 mi SW 15.0 mph 26.5 mph N/A   Clear
12:53 PM 46.0 °F 39.6 °F 27.0 °F 47% 30.17 in 10.0 mi WSW 15.0 mph 26.5 mph N/A   Partly Cloudy
1:53 PM 44.1 °F 35.7 °F 23.0 °F 43% 30.18 in 10.0 mi WSW 20.7 mph 26.5 mph N/A   Clear
2:53 PM 44.1 °F 36.5 °F 24.1 °F 45% 30.19 in 10.0 mi SW 17.3 mph 23.0 mph N/A   Clear
3:53 PM 41.0 °F 33.9 °F 24.1 °F 51% 30.22 in 10.0 mi WSW 12.7 mph 23.0 mph N/A   Clear
4:53 PM 39.0 °F 31.8 °F 21.0 °F 49% 30.23 in 10.0 mi WSW 11.5 mph - N/A   Partly Cloudy
5:53 PM 36.0 °F 30.3 °F 23.0 °F 59% 30.24 in 10.0 mi SW 6.9 mph - N/A   Clear
6:53 PM 34.0 °F 28.8 °F 21.9 °F 61% 30.25 in 10.0 mi SE 5.8 mph - N/A   Clear
7:53 PM 35.1 °F 31.0 °F 21.9 °F 59% 30.25 in 10.0 mi South 4.6 mph - N/A   Partly Cloudy
8:53 PM 36.0 °F 29.6 °F 23.0 °F 59% 30.26 in 10.0 mi South 8.1 mph - N/A   Mostly Cloudy
9:53 PM 32.0 °F 23.0 °F 23.0 °F 69% 30.26 in 10.0 mi SSE 11.5 mph - N/A   Clear
10:53 PM 30.0 °F 21.1 °F 23.0 °F 75% 30.27 in 10.0 mi SSE 10.4 mph - N/A   Clear
11:53 PM 30.0 °F 24.1 °F 23.0 °F 75% 30.28 in 10.0 mi South 5.8 mph - N/A   Clear